Theta_e
304 304 305 306 306 306 307 309 309 309 309 309 310 310 311 312 311 306 307 313 306 299 301 303 302 298 298 296 291 296 295 295 295 290 289 292 292 294 294 295 292 291 290 289 291 288 285 302 300 293 297 301 300 299
303 304 304 305 305 305 306 307 308 308 309 308 309 310 311 311 311 308 303 309 308 301 301 307 306 306 304 302 298 298 295 294 294 291 291 294 293 295 294 289 299 290 296 291 294 294 301 303 301 302 302 300 299 298
303 303 303 304 304 304 305 306 306 307 307 308 308 309 310 310 311 308 305 304 303 297 299 302 301 307 309 306 307 296 298 298 298 301 293 294 292 296 291 293 294 298 301 297 297 298 300 302 303 303 303 301 301 301
303 303 303 303 303 303 304 304 305 305 306 306 308 308 310 310 310 308 303 305 304 297 291 297 307 304 308 308 307 305 302 301 301 298 294 294 293 300 294 296 295 297 299 296 295 299 300 301 301 302 302 302 300 300
303 303 303 303 303 303 303 303 304 304 304 305 306 308 309 310 310 308 305 303 306 299 291 296 303 305 307 306 303 303 301 298 294 293 294 293 299 297 298 297 294 299 297 296 293 298 298 298 301 303 300 299 298 299
303 303 303 303 303 303 303 303 303 303 304 305 306 308 309 310 308 302 296 302 305 304 293 290 303 302 304 304 302 301 302 297 295 293 295 298 302 299 294 292 298 300 302 302 298 301 301 302 303 302 299 299 300 301
303 303 303 303 303 303 303 303 303 303 304 304 305 307 307 308 305 299 296 304 305 303 295 292 293 300 303 302 301 297 298 295 294 295 296 296 298 298 294 292 298 300 301 301 301 301 299 300 297 300 301 301 301 301
302 303 303 303 303 303 303 303 303 303 303 303 304 306 308 305 303 300 303 304 305 301 298 290 291 296 302 294 292 298 293 294 294 295 298 296 300 298 292 298 300 300 300 300 300 301 300 299 300 299 301 300 298 297
301 303 304 303 303 303 303 303 303 303 303 303 304 305 303 301 297 299 305 304 304 299 292 291 287 288 298 296 296 295 296 290 299 294 295 298 295 292 297 298 298 299 298 298 300 299 298 297 297 298 298 298 296 295
302 303 304 304 303 303 302 302 303 303 303 304 304 297 292 298 306 304 298 293 293 293 292 289 295 290 297 293 292 293 295 291 289 293 298 295 294 301 301 301 301 301 300 299 295 294 295 294 295 296 297 298 297 295
303 303 304 304 303 302 303 303 303 304 305 300 296 291 299 305 299 295 290 289 290 288 291 291 293 290 298 292 289 294 289 292 288 294 293 293 293 298 301 301 302 302 300 299 298 297 296 297 296 296 297 298 298 296
302 303 303 304 303 303 303 303 304 302 301 299 298 300 299 294 292 290 288 291 289 288 293 291 293 295 296 297 291 291 290 292 289 299 293 290 295 300 299 299 301 300 299 298 297 295 296 296 296 297 297 297 298 298
302 303 303 303 303 303 303 304 303 303 303 300 294 290 290 290 285 285 284 288 289 293 296 295 291 294 294 294 291 289 289 290 298 293 291 293 298 298 300 300 300 300 299 297 295 295 295 295 296 296 295 296 297 296
302 303 303 302 303 303 303 304 304 303 299 292 289 285 288 287 289 290 292 293 297 296 295 293 290 290 291 288 290 289 294 295 289 287 288 295 296 298 300 300 299 297 297 296 295 295 294 294 294 295 295 296 295 295
302 302 302 302 302 302 303 304 304 303 296 290 290 286 289 295 299 298 298 297 299 299 294 291 291 291 290 289 293 293 290 287 290 288 292 297 299 300 299 299 298 297 297 296 296 295 294 294 294 294 295 296 295 295
302 302 302 303 303 302 303 303 301 300 295 292 290 291 294 294 296 296 297 296 300 299 297 294 290 290 291 292 291 290 288 288 291 296 298 299 299 300 300 298 297 297 297 296 295 295 295 294 294 294 295 295 295 294
300 300 303 303 303 303 303 298 297 293 291 290 290 297 296 296 296 298 299 298 301 296 291 293 290 290 296 291 290 294 292 295 297 297 299 300 299 299 299 297 297 297 297 296 295 295 295 295 295 294 293 294 295 294
299 303 303 303 303 300 299 298 294 291 289 293 293 296 298 299 297 299 300 299 298 294 295 292 297 292 290 288 291 297 299 300 300 299 299 300 301 299 298 297 297 297 296 296 296 296 295 295 293 293 294 294 295 294
300 301 302 303 301 297 292 293 294 289 292 296 298 298 298 299 301 302 301 301 301 300 296 297 293 292 293 297 297 298 298 300 297 298 299 301 300 298 297 297 297 297 296 296 296 295 295 295 294 294 293 293 292 293
300 301 302 302 302 295 290 291 296 293 292 296 298 297 297 297 299 299 300 300 299 296 294 293 295 298 298 301 302 301 300 301 299 296 296 297 298 298 297 297 296 296 295 295 294 292 295 294 294 294 293 293 292 292
300 301 302 302 298 296 296 294 293 295 296 295 297 297 296 298 296 296 297 299 294 292 294 298 300 302 303 304 304 303 301 301 298 297 296 295 297 297 297 297 298 296 295 295 294 293 293 292 293 294 293 292 292 292
299 301 299 300 295 295 295 298 295 297 295 297 297 297 294 294 294 296 298 294 293 296 300 300 301 301 301 301 301 302 302 301 301 297 295 295 295 295 295 296 296 295 295 295 295 294 293 293 292 293 292 291 291 291
300 300 296 296 292 291 292 300 294 295 291 293 294 293 294 295 296 299 293 294 296 301 302 302 302 303 301 301 301 301 301 300 297 297 297 297 297 297 296 296 296 295 294 294 296 295 294 289 291 291 291 290 290 290
300 295 292 292 292 290 296 292 295 294 294 293 292 290 293 294 297 294 290 294 298 302 302 302 302 299 300 300 299 299 300 299 297 298 297 296 295 295 295 295 296 295 296 296 295 295 293 292 289 290 289 288 288 288
290 290 292 288 293 291 288 288 290 290 288 290 289 291 293 295 291 290 291 296 299 300 301 301 302 300 298 298 298 299 302 299 297 295 297 297 295 294 294 294 294 295 296 295 293 291 291 291 290 289 288 287 286 287
286 291 289 289 289 289 289 287 287 288 289 288 290 295 296 293 290 289 294 297 299 299 300 300 300 300 299 299 298 298 299 300 298 296 296 297 296 294 293 292 292 292 294 293 291 290 289 289 288 288 288 287 284 286
286 288 292 297 295 293 292 293 293 291 288 289 293 292 292 287 288 293 300 302 301 302 303 303 302 301 300 300 301 302 301 301 300 297 298 298 297 298 297 294 292 292 292 291 290 290 288 288 287 287 287 287 287 286
292 293 288 292 292 294 290 290 289 290 292 296 295 290 289 289 288 294 300 304 303 303 303 304 304 303 302 302 301 300 299 299 299 298 297 297 297 296 293 291 289 285 288 288 289 289 288 287 287 287 286 286 286 287
292 295 294 290 291 291 292 292 292 297 300 298 294 292 292 295 298 300 301 302 304 304 301 299 300 301 301 301 301 300 299 297 294 292 292 291 291 292 293 291 290 290 288 286 281 284 286 286 286 286 286 285 286 286
293 297 292 292 289 289 295 297 296 299 298 299 298 296 295 296 296 300 300 300 300 299 299 299 299 298 297 297 296 297 298 299 299 297 294 293 293 295 295 292 291 291 291 290 288 286 281 283 284 286 285 284 283 283
297 295 291 291 290 295 296 299 299 297 297 295 296 296 293 295 296 300 301 301 301 300 299 298 298 298 297 296 296 296 295 299 300 300 299 298 296 296 294 291 291 290 290 289 288 287 286 285 285 283 282 281 281 281
295 292 290 288 289 294 295 293 292 292 291 290 290 292 295 293 292 296 299 300 300 299 294 297 298 298 300 300 300 300 294 300 300 299 298 297 295 293 291 290 290 290 289 288 287 286 285 283 282 281 280 279 279 278
292 292 291 289 288 288 290 289 289 287 288 289 291 293 293 292 289 295 300 301 301 300 300 301 301 301 302 301 300 296 292 292 287 284 284 285 285 288 290 290 289 289 288 287 285 284 282 281 280 278 277 276 276 275
Wind_Speed
15 15 15 13 11 11 13 9 7 7 7 8 10 11 12 6 10 5 2 2 2 3 11 12 7 8 7 4 4 5 6 3 2 3 4 5 3 3 4 6 6 7 6 7 8 5 5 11 8 6 8 12 14 16
15 14 13 15 12 11 11 10 7 7 7 7 10 10 8 6 10 8 1 2 2 3 7 13 13 14 13 8 3 3 2 3 2 1 2 6 4 2 4 1 5 3 5 2 2 2 8 9 11 7 8 11 13 16
15 15 14 13 12 11 10 8 7 7 7 8 9 9 9 8 7 11 2 4 2 2 8 8 6 8 12 12 7 3 2 3 2 4 1 5 5 3 2 2 2 2 7 3 3 3 7 9 10 11 11 12 13 13
15 15 15 13 13 10 9 8 7 8 8 9 8 9 9 9 7 14 3 2 1 2 3 4 3 3 4 11 15 10 1 2 1 1 3 5 5 5 4 2 3 4 8 4 4 7 7 9 14 12 12 13 14 15
14 15 14 14 14 11 9 9 9 8 8 9 9 10 10 10 9 8 2 2 2 2 2 7 15 12 13 10 11 11 9 5 1 2 5 5 4 5 8 7 7 1 3 2 3 6 5 8 10 11 13 13 14 15
15 15 14 14 14 12 10 9 9 9 9 10 10 10 10 9 11 4 1 3 4 1 1 4 3 4 9 10 3 12 7 3 1 2 5 4 8 7 3 2 1 6 5 10 4 5 5 7 9 12 11 12 12 14
17 16 15 15 13 11 10 9 9 9 8 9 9 9 13 6 7 2 2 2 11 5 3 4 2 7 7 4 3 2 4 2 2 3 5 7 4 5 6 8 7 7 10 5 3 4 6 8 9 10 10 11 12 12
19 17 15 14 13 12 11 10 9 9 9 8 10 15 5 13 9 2 4 12 8 3 3 3 4 5 5 3 3 2 4 3 4 4 4 6 3 3 5 3 10 9 8 3 4 4 6 7 8 10 11 11 12 14
20 18 15 14 13 11 11 10 9 8 8 9 17 14 3 1 2 3 12 8 3 2 2 2 3 2 2 2 2 4 4 4 4 4 6 4 5 6 1 9 5 7 3 3 4 7 8 9 10 11 12 13 13 14
23 16 14 13 10 8 8 8 8 8 9 7 4 1 2 2 18 14 3 2 1 1 2 5 7 2 5 2 2 2 3 3 3 6 4 4 5 5 9 9 8 5 6 6 6 7 8 9 10 11 12 12 11 11
12 12 12 12 10 8 8 9 9 7 12 1 2 2 1 11 1 3 3 4 4 4 6 6 8 5 4 3 2 3 1 2 4 4 6 5 5 7 6 7 7 7 6 7 6 6 8 8 9 10 11 12 12 12
15 12 10 9 8 8 9 10 8 4 1 4 5 4 2 2 2 3 5 5 6 4 7 4 1 1 3 1 3 2 2 4 5 8 5 3 6 10 8 7 8 7 7 7 7 8 8 10 11 10 11 11 11 11
15 13 9 8 8 8 7 7 9 13 8 3 3 3 3 4 4 6 7 5 4 5 5 4 3 2 3 2 2 3 5 6 4 3 1 4 9 9 7 8 7 8 8 7 8 8 8 10 11 11 11 10 10 11
14 5 4 5 5 5 5 9 15 8 1 2 4 4 5 5 5 6 3 3 1 5 5 4 3 2 2 4 3 5 5 3 4 5 3 8 8 9 7 7 8 8 7 8 7 7 8 9 10 11 11 10 10 12
10 6 4 6 7 6 4 10 15 1 1 1 3 4 6 6 1 5 3 3 3 6 6 4 2 4 4 4 5 4 4 5 2 4 2 8 7 8 8 8 7 7 8 7 7 7 8 8 9 9 9 9 11 12
8 3 7 5 11 8 8 13 2 0 1 2 4 5 4 4 3 2 5 4 4 3 3 2 3 4 5 4 5 7 3 1 4 4 7 6 7 6 7 8 7 7 8 7 7 7 7 8 8 8 9 9 11 12
4 2 5 6 9 10 11 3 1 2 3 3 4 7 7 4 3 3 2 5 3 3 2 3 4 6 4 3 2 0 1 6 9 9 5 9 8 6 9 8 7 7 7 7 8 7 7 7 7 9 9 11 10 12
3 2 6 5 6 5 2 2 2 3 5 6 6 4 5 2 3 1 4 6 4 3 3 3 4 3 3 1 2 6 8 8 10 10 9 7 7 10 8 8 7 7 7 6 6 8 7 7 7 7 9 10 8 10
6 6 9 14 5 3 3 4 2 3 8 3 7 5 3 3 3 3 4 4 4 1 4 4 4 2 2 3 1 7 7 11 10 9 6 9 10 10 9 7 7 7 7 5 5 5 6 7 6 6 7 8 8 8
11 10 9 8 6 2 3 2 2 4 3 3 4 4 2 3 3 4 4 4 3 2 3 4 1 3 2 3 4 4 8 10 10 10 9 8 8 9 9 8 6 7 7 8 6 6 6 7 7 7 7 7 8 9
3 6 9 2 1 3 4 4 5 3 3 1 1 1 2 4 3 4 4 3 1 3 3 4 2 1 4 6 3 7 7 8 8 9 9 8 8 8 6 6 5 5 4 4 5 6 6 7 6 6 8 8 9 8
2 2 2 1 2 3 3 4 2 1 2 1 2 2 3 3 3 3 5 3 3 5 2 5 6 5 7 7 7 8 9 10 12 10 10 9 8 7 6 6 6 6 6 5 5 5 7 6 6 7 8 9 9 9
5 1 1 3 3 2 3 3 3 2 3 3 1 3 3 3 3 5 2 1 4 7 7 2 4 5 9 10 11 9 11 11 8 8 7 7 8 6 5 5 5 6 7 5 4 5 6 5 5 7 8 9 9 9
2 3 3 4 5 3 3 3 3 4 4 3 3 2 1 3 2 1 2 4 6 5 7 7 5 8 9 11 8 8 8 8 8 7 8 8 7 7 7 6 6 5 5 5 5 5 6 7 6 7 9 10 10 9
3 3 3 3 4 4 4 3 4 3 2 3 3 2 4 3 3 4 5 1 5 6 6 6 7 7 8 8 9 8 10 8 8 8 6 8 8 6 7 7 7 6 6 6 6 6 6 7 7 8 9 9 11 11
4 5 5 6 4 5 5 4 4 5 2 3 4 5 4 3 5 3 3 3 6 6 6 8 8 8 6 8 8 8 8 8 8 7 6 6 5 6 6 6 7 6 6 6 5 6 7 7 7 8 8 8 7 10
3 5 4 4 2 3 3 2 3 2 4 5 3 4 3 3 3 3 1 0 4 4 4 5 4 6 8 5 7 8 8 7 7 7 5 7 9 9 2 9 10 6 6 6 6 6 6 6 7 7 7 8 9 10
4 4 5 6 3 3 2 3 4 5 5 3 3 6 4 1 2 1 1 4 4 1 4 6 7 5 7 8 9 9 9 10 10 9 9 9 9 9 10 10 10 14 9 8 7 7 6 6 6 7 8 8 8 9
4 3 4 6 3 2 3 3 3 2 3 2 2 3 3 3 2 1 0 3 4 4 6 6 9 8 8 7 7 8 9 9 11 13 12 8 8 7 8 8 7 8 8 8 7 6 8 7 8 8 9 8 8 8
5 5 3 6 4 4 2 0 2 5 6 4 3 2 2 3 1 4 5 5 6 6 5 9 8 9 9 9 9 9 8 7 7 7 7 7 8 8 7 6 5 5 5 7 8 8 4 4 5 6 8 8 7 7
4 6 4 4 3 3 5 4 6 5 4 3 4 2 4 3 2 4 4 3 6 7 8 9 9 9 9 10 10 10 9 8 8 8 8 9 9 8 7 6 6 5 5 6 6 6 6 7 7 8 8 9 10 9
4 5 3 4 2 2 4 3 2 2 1 1 0 2 2 2 3 2 3 6 5 8 8 8 8 9 10 9 9 6 9 9 10 9 12 10 10 8 7 7 7 6 7 8 7 7 9 9 8 8 8 10 10 10
2 4 3 2 2 2 2 2 2 2 1 2 3 3 2 1 2 2 3 4 5 3 6 6 7 7 9 10 14 12 14 12 15 14 16 13 8 8 8 7 7 8 9 8 9 9 10 11 9 9 8 8 8 9
Wind_Direction
300 304 304 304 312 315 326 280 269 268 269 271 280 282 284 241 210 182 308 351 300 238 295 299 291 260 256 240 256 11 279 13 156 211 253 264 304 352 279 135 153 200 196 198 231 245 246 15 26 29 9 341 336 338
298 297 301 302 307 312 306 309 293 284 270 286 283 280 283 251 213 173 224 65 47 259 295 318 285 269 252 269 162 220 20 217 235 269 271 302 313 336 309 205 138 228 189 228 267 126 81 67 80 43 357 344 344 326
292 296 296 297 299 298 311 302 303 307 300 284 277 285 271 263 206 179 168 127 137 280 269 232 270 229 220 210 221 226 200 269 273 113 329 282 279 273 277 264 267 286 277 210 291 117 44 50 37 11 357 344 329 337
292 292 285 293 288 293 301 297 297 296 290 286 273 280 284 263 209 183 181 172 160 79 288 295 114 102 161 174 186 209 68 117 273 161 243 267 268 289 291 231 247 251 218 258 286 48 346 37 4 346 342 340 342 336
290 286 290 286 286 286 287 286 283 283 285 286 286 280 283 258 230 177 112 175 278 248 292 301 308 277 203 176 179 196 170 142 132 267 234 250 272 271 265 279 268 56 318 338 63 58 358 342 324 328 344 349 343 344
281 284 283 280 280 281 281 279 276 275 277 276 283 287 302 269 152 128 167 186 182 179 215 288 314 136 116 174 178 178 170 104 147 253 272 257 271 276 296 282 143 173 102 39 45 355 324 297 347 346 354 343 2 358
285 275 272 276 281 280 277 276 274 276 277 282 291 291 317 222 156 163 179 97 154 160 217 264 228 135 132 90 82 89 130 134 224 244 252 259 258 280 275 256 13 84 89 68 305 323 337 6 341 351 355 359 10 2
298 282 273 267 263 268 268 267 270 275 277 286 290 300 258 127 115 124 63 128 156 230 252 267 271 164 163 133 161 170 146 192 196 243 250 256 254 224 253 140 180 94 86 58 351 338 15 358 353 6 1 5 6 9
296 286 270 266 256 254 262 259 263 273 283 281 293 128 120 83 136 110 123 76 43 344 248 243 245 177 354 141 178 178 184 196 217 235 237 233 242 211 213 130 116 85 81 17 4 32 21 7 6 7 11 16 17 6
287 274 268 257 254 251 253 254 262 268 263 253 91 143 131 140 122 116 83 151 162 165 246 253 229 236 196 123 189 219 182 220 230 228 219 220 248 132 129 138 114 109 69 53 38 27 10 6 15 13 21 26 23 7
296 279 270 255 239 241 244 255 257 262 170 217 124 96 48 148 153 180 151 201 165 218 204 222 235 210 356 183 191 236 212 218 249 191 206 213 158 149 153 112 106 90 91 82 61 30 21 17 20 19 22 27 29 16
312 294 277 251 220 224 254 263 244 211 127 97 93 86 94 216 220 206 195 191 212 243 170 193 85 89 116 104 213 244 248 214 251 168 222 165 133 140 122 133 113 110 92 75 57 48 34 40 34 31 32 30 28 26
303 295 263 222 216 229 258 234 167 130 124 84 60 124 206 172 193 216 191 190 198 203 151 146 141 107 138 217 220 224 229 234 284 227 200 96 121 130 152 128 121 106 96 80 67 63 49 48 49 39 41 31 25 29
297 279 199 202 202 211 275 174 159 147 107 150 160 169 233 178 232 220 279 96 4 112 121 129 135 176 157 186 234 241 234 211 238 212 96 126 128 146 150 131 126 104 89 88 77 59 54 49 52 44 42 32 17 18
307 236 229 237 215 217 219 164 154 212 119 172 232 230 217 237 170 83 95 178 141 142 138 140 193 186 183 236 209 240 232 229 5 77 82 124 136 147 136 112 114 114 105 85 72 63 60 54 51 46 30 35 26 12
301 246 224 195 186 189 164 148 105 43 145 211 235 256 235 247 192 301 225 164 135 109 116 175 200 210 225 214 223 209 230 323 110 113 126 135 127 109 100 95 94 94 94 89 78 70 64 55 49 38 31 16 32 17
197 271 69 162 161 169 143 92 94 181 230 241 236 235 257 289 245 193 164 108 91 131 228 233 226 217 180 240 233 217 94 119 129 131 126 119 132 136 116 117 113 105 99 96 91 76 63 59 46 42 29 4 33 25
261 33 20 153 130 100 71 57 184 208 235 229 247 227 212 245 269 107 116 144 156 199 216 248 294 263 226 284 140 128 122 111 114 124 128 140 146 120 126 118 115 107 103 98 97 89 60 51 45 36 24 12 10 29
318 322 326 151 126 105 135 174 214 240 225 232 232 237 204 218 224 122 145 150 169 161 310 257 236 246 313 121 257 121 125 130 126 126 136 123 125 119 115 113 108 107 96 75 56 66 90 64 48 34 22 15 358 32
291 288 182 137 78 105 154 170 229 264 247 226 229 202 178 222 183 184 165 146 147 225 236 239 329 96 64 121 177 152 121 123 132 133 129 129 126 131 154 153 123 141 137 141 98 9 60 48 19 25 35 19 0 20
212 115 115 86 88 256 210 191 198 228 283 264 246 187 172 181 196 185 125 113 99 248 253 290 131 170 153 130 146 110 133 134 142 134 138 140 147 115 127 146 177 113 106 73 79 104 59 48 8 12 27 15 358 30
97 184 114 145 232 249 258 229 261 250 235 241 195 211 215 204 204 162 139 176 216 242 231 268 185 214 115 112 125 131 125 113 96 101 99 120 138 139 136 141 125 98 75 61 57 61 71 50 6 16 34 15 0 30
135 67 137 181 235 211 259 215 224 249 228 161 145 250 203 154 99 170 219 216 250 236 223 267 253 109 122 120 113 135 117 121 126 129 158 112 97 105 102 94 98 108 103 82 68 57 66 56 36 24 39 27 5 20
171 186 213 195 217 221 179 187 177 231 220 213 226 216 122 95 159 204 256 205 227 219 195 202 142 137 131 138 139 123 144 135 130 118 107 126 125 97 90 88 83 75 77 79 59 54 51 53 28 35 43 32 10 17
205 184 208 217 220 205 195 206 207 237 251 164 249 188 123 166 175 222 236 156 158 157 185 175 165 168 163 153 142 152 133 141 120 125 132 107 100 117 103 88 73 50 29 59 57 55 45 47 34 26 44 39 17 14
231 183 199 201 175 213 202 181 204 213 194 220 237 139 190 190 221 231 62 168 158 172 178 178 163 188 169 155 143 133 128 120 127 123 118 134 142 134 137 142 118 74 50 50 41 47 55 42 41 24 28 45 47 18
224 208 204 228 234 201 221 149 143 169 211 228 169 165 214 201 226 66 39 261 158 166 180 167 170 168 171 137 125 120 117 122 129 127 117 91 62 39 37 101 90 82 63 58 58 46 43 47 45 34 24 34 35 32
261 201 196 186 193 220 222 169 209 221 222 225 179 199 172 29 71 293 354 73 99 219 144 147 200 137 141 134 124 121 127 108 99 101 95 82 77 75 75 79 80 72 72 40 35 51 50 45 46 48 38 33 23 38
231 221 136 172 139 195 234 241 256 33 7 319 343 67 86 81 172 304 132 123 150 149 170 136 107 108 119 128 134 125 122 145 150 148 140 134 133 121 120 125 152 112 98 91 51 57 63 57 52 28 50 43 20 32
195 197 185 180 183 228 187 79 63 64 59 46 83 144 129 105 198 281 281 160 169 167 174 129 140 148 146 141 137 143 163 163 152 164 156 159 134 133 125 122 122 121 139 152 146 134 167 216 133 60 44 50 35 31
146 171 185 190 207 50 54 63 80 58 32 42 355 302 117 126 162 246 300 247 193 174 162 157 162 157 160 167 157 166 159 155 164 145 118 110 117 122 115 110 107 103 93 86 72 47 77 66 60 58 46 50 44 38
156 185 182 150 139 72 40 44 22 65 82 109 41 334 176 161 145 175 263 296 202 181 172 170 166 177 184 159 164 127 112 113 110 120 122 116 110 123 130 109 102 105 95 78 67 76 74 74 70 61 55 49 44 38
74 116 92 109 119 168 141 174 173 144 185 213 193 200 126 358 170 207 215 257 287 199 168 179 192 171 149 134 101 83 75 81 86 77 73 71 75 97 108 106 106 101 95 90 88 85 81 81 77 72 64 55 48 40